User: anonymous
Location: Owatonna
(44.0840°N, 93.2260°W)
Time: 10:32:53
(UTC-05:00)
Language:

Cosmos 1500 Rocket - Orbit

View from above orbital plane
View from above orbital plane
View from above satellite
View from above satellite

Ground track
Ground track

The orbit data is extracted from the following two-line orbital elements,

1 14373U 83099B   14211.94750468  .00000279  00000-0  31187-4 0  7225
2 14373 082.5432 147.6059 0022098 098.7089 328.8411 14.83110130664878
Epoch (UTC): 30 July 2014 22:44:24
Eccentricity: 0.0022098
inclination: 82.5432°
perigee height: 604 km
apogee height: 635 km
right ascension of ascending node: 147.6059°
argument of perigee: 98.7089°
revolutions per day: 14.83110130
mean anomaly at epoch: 328.8411°
orbit number at epoch: 66487

The dashed part of the orbit path shows where the satellite is in the earth's shadow,  

DLR